User: anonymous   Login
Location: Theydon Bois
(51.6750°N, 0.1050°E)
Time: 22:11:37
(UTC+01:00)
Language:

Cosmos 1980 Rocket - Orbit

View from above orbital plane
View from above orbital plane
View from above satellite
View from above satellite

Ground track
Ground track

The orbit data is extracted from the following two-line orbital elements,

1 19650U 88102B   18198.46088785 -.00000258  00000-0 -10701-3 0  9992
2 19650  70.9992 263.9375 0016363 297.2008  62.7446 14.15769041531940
Epoch (UTC): 17 July 2018 11:03:40
Eccentricity: 0.0016363
inclination: 70.9992°
perigee height: 828 km
apogee height: 851 km
right ascension of ascending node: 263.9375°
argument of perigee: 297.2008°
revolutions per day: 14.15769041
mean anomaly at epoch: 62.7446°
orbit number at epoch: 53194

The dashed part of the orbit path shows where the satellite is in the earth's shadow,  

DLR